Terug naar catalogus

STARLINK-5807

ActiefCommunicatieVLEO
NORAD 55791·PAYLOAD·🇺🇸 United States

Gelanceerd Mar 3, 2023 vanaf Vandenberg Space Force Base

Loading…

Volgende Passages (komende 24 uur)

TLE

VersSource: CelesTrak SupGP

Epoch: Sep 15, 2026, 03:03 UTC

1 55791C 23028BC  26258.12756944 -.00049523  00000+0 -41502-2 0  2589
2 55791  70.0001  86.8704 0002877 269.7453 348.6480 14.98355988    14

Volg STARLINK-5807 in realtime met AllMySat

Download on the App Store